Weather Roundup
Issued by NWS

Home | Current Version | Previous Version | Graphics & Text | Print | Product List | Glossary Off
Versions: 1 2 3 4 5 6 7 8 9 10 11 12 13 14 15 16 17 18 19 20 21 22 23 24 25 26 27 28 29 30 31 32 33 34 35 36 37 38 39 40 41 42 43 44 45 46 47 48 49 50

000
NZUS93 KARX 152059
HRRWXR

CURRENT HOURLY OBSERVATIONS ACROSS
MUCH OF THE UPPER MISSISSIPPI VALLEY
NATIONAL WEATHER SERVICE LA CROSSE WI
400 PM CDT TUE APR 15 2014


...SOUTHEAST MINNESOTA...


CITY           SKY/WX    TMP DP  RH WIND       PRES   REMARKS
ROCHESTER      SUNNY     34  15  46 MISG      30.07F
ROCHESTER/MAYO MOCLDY    36   7  30 SW9       30.07F WCI  29
WINONA         MOSUNNY   36  12  38 NW3       30.11S
AUSTIN         SUNNY     34  10  37 SW8G20    30.07F WCI  27
ALBERT LEA     SUNNY     36   9  32 SW7       30.07F WCI  30
DODGE CENTER   SUNNY     36   3  25 SW8       30.06F WCI  29
PRESTON        SUNNY     34  13  42 W3        30.09S
OWATONNA       SUNNY     36   9  32 W7        30.07F WCI  30
FARIBAULT      SUNNY     37   1  22 SE6       30.07F WCI  33
$$

...ELSEWHERE IN MINNESOTA...


CITY           SKY/WX    TMP DP  RH WIND       PRES   REMARKS
MINNEAPOLIS    PTSUNNY   34   0  23 VRB3      30.07F
INTNL FALLS    SUNNY     27   0  31 MISG      30.03F
DULUTH         MOSUNNY   28   1  31 VRB5      30.01F WCI  23
RED WING       SUNNY     37   3  23 W3        30.07F
REDWOOD FALLS  PTSUNNY   36   8  31 VRB6      30.03F WCI  31
MANKATO        SUNNY     36   3  25 CALM      30.06F
WORTHINGTON    SUNNY     39  12  33 S12G21    30.00F WCI  32
FAIRMONT       SUNNY     36   7  30 S7        30.06F WCI  30
$$

...SOUTHWEST WISCONSIN...


CITY           SKY/WX    TMP DP  RH WIND       PRES   REMARKS
LA CROSSE      SUNNY     37  10  32 VRB6      30.10F WCI  32
PRAIRIE DU CHI SUNNY     36  13  39 SW7       30.12F WCI  31
BOSCOBEL       LGT RAIN  37  11  34 VRB3G16   30.11F
LONE ROCK      NOT AVBL
PLATTEVILLE    MOSUNNY   36  15  42 W13       30.11F WCI  27
FORT MC COY    SUNNY     33  11  39 W5        30.10F WCI  29
VIROQUA        MOCLDY    33  15  46 W9        30.08S WCI  25
WIS DELLS      PTSUNNY   32  17  54 NW8       30.09F WCI  24
$$

...ELSEWHERE IN WISCONSIN...


CITY           SKY/WX    TMP DP  RH WIND       PRES   REMARKS
MILWAUKEE      PTSUNNY   31  18  58 SE16      30.13F WCI  20
MADISON        PTSUNNY   34  14  43 NW7       30.11F WCI  28
GREEN BAY      PTSUNNY   31  19  61 W16       30.09S WCI  20
EAU CLAIRE     SUNNY     35   6  29 W8        30.07F WCI  29
BLACK RVR FLS  FAIR      34   9  36 W3        30.09S
MEDFORD        PTSUNNY   29  12  48 W12G18    30.04S WCI  19
WAUSAU         PTSUNNY   28  13  53 W14G20    30.04F WCI  17
WIS RAPIDS     CLOUDY    31  12  45 VRB3      30.09F
MARSHFIELD     MOSUNNY   30  11  45 SW5       30.06S WCI  25
RICE LAKE      NOT AVBL
$$

...NORTHEAST IOWA...


CITY           SKY/WX    TMP DP  RH WIND       PRES   REMARKS
WATERLOO       SUNNY     37   9  31 VRB5      30.11F WCI  33
DUBUQUE        MOSUNNY   36  16  44 W12G20    30.10F WCI  28
DECORAH        MOSUNNY   34  14  44 VRB6G16   30.09S WCI  29
MASON CITY     SUNNY     35  10  35 SW6       30.09F WCI  30
CHARLES CITY   SUNNY     36  16  44 VRB7      30.10F WCI  30
OELWEIN        SUNNY    N/A N/A N/A VRB7G15   30.12F
$$

...ELSEWHERE IN IOWA...


CITY           SKY/WX    TMP DP  RH WIND       PRES   REMARKS
DES MOINES     MOSUNNY   45  18  34 VRB3      30.10F
IOWA CITY      SUNNY     41  11  29 W13G18    30.15F
FORT DODGE     SUNNY     39  21  48 S7        30.08F WCI  34
MARSHALLTOWN   SUNNY     37  15  40 SW6       30.11F WCI  32
CEDAR RAPIDS   SUNNY     39  13  34 NW10      30.12F WCI  32
$$

...NORTHERN ILLINOIS...


CITY           SKY/WX    TMP DP  RH WIND       PRES   REMARKS
CHICAGO-OHARE  CLOUDY    35  14  42 NW7       30.14F WCI  29
DUPAGE         CLOUDY    35  20  54 NW10      30.13F WCI  27
CHICAGO-MIDWAY PTSUNNY   36  14  40 NW13G18   30.15S WCI  27
MOLINE         SUNNY     42  11  28 W10G21    30.14F
ROCKFORD       PTSUNNY   38  14  37 CALM      30.14F
STERLING       PTSUNNY   41  19  42 CALM      30.13F
PEORIA         MOSUNNY   42  16  34 NW9       30.16F
$$

NOTE: "FAIR" INDICATES FEW OR NO CLOUDS BELOW 12,000 FEET WITH NO
SIGNIFICANT WEATHER AND/OR OBSTRUCTIONS TO VISIBILITY. WIND
SPEEDS ARE IN MILES-PER-HOUR.



USA.gov is the U.S. government's official web portal to all federal, state and local government web resources and services.